Flag for Philippines Weather past 2 weeks in Tarlac City, Philippines

Now
86 °F

Scattered clouds.


Feels Like: 87 °F
Forecast: 67 / 93 °F
Wind: 5 mph from North

Location: Clarkfield Pampanga International Airport

Current Time: Mar 4, 2015 at 11:29:30 AM

Latest Report: Mar 4, 2015 at 11:00 AM


Visibility: N/A

Pressure: 29.98 "Hg

Humidity: 49%

Dew point: 64 °F

Location of Tarlac CityLocation

Historic Weather in Tarlac City — Graph

°F

Tarlac City temperature yesterday

Maximum temperature yesterday: 88 °F (at 2:00 PM)
Minimum temperature yesterday: 70 °F (at 4:00 AM)
Average temperature yesterday: 79 °F

Past Weeks' High & Low Weather Summary

 TemperatureHumidityPressure
High90 °F (Feb 27, 3:00 PM)94% (Feb 18, 6:00 AM)30.07 "Hg (Feb 18, 6:00 AM)
Low68 °F (Feb 23, 4:00 AM)35% (Mar 1, 1:00 PM)29.83 "Hg (Feb 17, 3:00 PM)
Average78 °F65%29.96 "Hg
* Reported Feb 17 10:00 AM — Mar 4 10:00 AM, Tarlac City, Weather by CustomWeather, © 2015

Note: Actual official high and low records may vary slightly from our data, if they occured in-between our weather recording intervals... More about our weather records

Advertising

Tarlac City weather history for previous 24 hours

 ConditionsComfort  
Time TempWeatherWind HumidityBarometerVisibility
10:00 AM
Wed, Mar 4
82 °FScattered clouds.3 mph55%30.01 "HgN/A
9:00 AM79 °FScattered clouds.5 mph65%29.98 "HgN/A
8:00 AM75 °FScattered clouds.6 mph74%29.98 "HgN/A
7:00 AM70 °FScattered clouds.5 mph83%29.95 "HgN/A
6:00 AM68 °FPassing clouds.3 mph88%29.92 "HgN/A
5:00 AM70 °FPassing clouds.2 mph83%29.89 "HgN/A
4:00 AM70 °FPassing clouds.3 mph88%29.89 "HgN/A
3:00 AM70 °FPassing clouds.3 mph88%29.89 "HgN/A
2:00 AM72 °FPassing clouds.3 mph83%29.89 "HgN/A
1:00 AM73 °FPassing clouds.1 mph83%29.92 "HgN/A
12:00 AM73 °FPassing clouds.2 mph83%29.92 "HgN/A
11:00 PM
Tue, Mar 3
75 °FPassing clouds.3 mph83%29.92 "HgN/A
10:00 PM77 °FPassing clouds.7 mph69%29.92 "HgN/A
9:00 PM77 °FPassing clouds.7 mph61%29.92 "HgN/A
8:00 PM81 °FPassing clouds.6 mph58%29.89 "HgN/A
7:00 PM81 °FPassing clouds.5 mph58%29.86 "HgN/A
6:00 PM84 °FScattered clouds.6 mph51%29.83 "HgN/A
5:00 PM88 °FScattered clouds.6 mph38%29.83 "HgN/A
4:00 PM88 °FScattered clouds.7 mph38%29.83 "HgN/A
3:00 PM88 °FScattered clouds.6 mph40%29.83 "HgN/A
2:00 PM88 °FScattered clouds.7 mph40%29.86 "HgN/A
1:00 PM86 °FScattered clouds.5 mph40%29.89 "HgN/A
12:00 PM86 °FPassing clouds.1 mph40%29.92 "HgN/A
11:00 AM84 °FPassing clouds.6 mph45%29.95 "HgN/A
Weather by CustomWeather, © 2015

See weather overviewHow to use our weather pages